Regional Weather Roundup
Issued by NWS Sterling, VA

Home | Current Version | Previous Version | Text Only | Print | Product List | Glossary On
Versions: 1 2 3 4 5 6 7 8 9 10 11 12 13 14 15 16 17 18 19 20 21 22 23 24 25 26 27 28 29 30 31 32 33 34 35 36 37 38 39 40 41 42 43 44 45 46 47 48 49 50
000
ASUS41 KLWX 251910
RWRLWX

REGIONAL WEATHER ROUNDUP
NATIONAL WEATHER SERVICE BALTIMORE MD/WASHINGTON DC
300 PM EDT WED APR 25 2018

Note: "FAIR" indicates few or no clouds below 12,000 feet
with no significant weather and/or obstructions to visibility.
 TC=TEMPERATURE CELSIUS

 * =Non NWS site. Station does not report precipitation (e.g. rain,
    snow, etc.), thunder, or fog.

DCZ001-MDZ009-015-VAZ040>042-051-053>054-252000-
WASHINGTON METRO

CITY           SKY/WX    TMP DP  RH WIND       PRES   REMARKS
WASHINGTON NAT CLOUDY    65  58  78 NW7       29.71F
DULLES         CLOUDY    59  58  96 NW12      29.73S FOG
ANDREWS AFB    CLOUDY    63  59  88 NW7       29.69S
FT BELVOIR     LGT RAIN  63  57  82 NW8       29.70F
QUANTICO       PTSUNNY   65  59  81 N12       29.71F
COLLEGE PARK*  CLOUDY    62  57  84 NW3       29.70S
LEESBURG*      LGT RAIN  55  55 100 N6        29.74F
MANASSAS*      CLOUDY    62  57  83 NW14      29.72F
GAITHERSBURG*  CLOUDY    61  57  87 NW8       29.72F

$$

MDZ006>007-011-014-252000-
BALTIMORE METRO

CITY           SKY/WX    TMP DP  RH WIND       PRES   REMARKS
BWI AIRPORT    CLOUDY    64  60  87 N3        29.69S
MD SCIENCE CTR   N/A     65  60  84 MISG      29.70F
MARTIN STATE   CLOUDY    64  63  94 CALM      29.71F
ANNAPOLIS      CLOUDY    65  58  78 N7        29.68F
FORT MEADE*    CLOUDY    63  59  88 CALM      29.72S

$$

MDZ012-015-019>023-252000-
MARYLAND EASTERN SHORE

CITY           SKY/WX    TMP DP  RH WIND       PRES   REMARKS
OCEAN CITY     PTSUNNY   59  57  93 S8        29.69F FOG
SALISBURY      CLOUDY    73  59  61 SW8       29.65F
BAY BRIDGE AP* CLOUDY    63  59  88 N6        29.69F
CAMBRIDGE*     MOSUNNY   70  63  78 VRB7      29.67F
EASTON*        PTSUNNY   68  63  83 NW9       29.71F

$$

MDZ017>025-252000-
SOUTHERN MARYLAND

CITY           SKY/WX    TMP DP  RH WIND       PRES   REMARKS
PATUXENT RIVER PTSUNNY   65  60  84 N5        29.68F
ST INIGOES     CLOUDY    63  60  90 W6        29.67F FOG
LEONARDTOWN*   CLOUDY    61  59  94 NE3       29.70F

$$

MDZ003>005-252000-
NORTH CENTRAL MARYLAND

CITY           SKY/WX    TMP DP  RH WIND       PRES   REMARKS
FREDERICK*     CLOUDY    63  63 100 VRB3      29.75F FOG
HAGERSTOWN APT CLOUDY    64  56  75 NW6       29.72F
WESTMINSTER*   CLOUDY    63  59  88 NW6       29.71F

$$

MDZ501>502-252000-
WESTERN MARYLAND

CITY           SKY/WX    TMP DP  RH WIND       PRES   REMARKS
OAKLAND*       CLOUDY    50  46  87 NW6       29.80F
CUMBERLAND*    CLOUDY    66  52  59 N12       29.79S

$$

VAZ025>031-252000-
SHENANDOAH VALLEY

CITY           SKY/WX    TMP DP  RH WIND       PRES   REMARKS
WINCHESTER*    CLOUDY    64  52  63 NW9G16    29.74F
FRONT ROYAL*   PTSUNNY   64  55  72 CALM      29.72F
LURAY*         CLOUDY    64  54  68 CALM      29.73F
NEW MARKET*    CLOUDY    65  53  66 SW3       29.72F
STAUNTON*      CLOUDY    62  53  73 W6        29.77S
WAYNESBORO*    CLOUDY    60  54  82 W6        29.76S

$$

WVZ021-048>050-054>055-252000-
EASTERN WEST VIRGINIA PANHANDLE

CITY           SKY/WX    TMP DP  RH WIND       PRES   REMARKS
MARTINSBURG    CLOUDY    65  54  67 NW5       29.72F
PETERSBURG*    CLOUDY    62  53  73 CALM      29.77S

$$

VAZ036>039-050-252000-
CENTRAL FOOTHILLS

CITY           SKY/WX    TMP DP  RH WIND       PRES   REMARKS
CHARLOTTESVILL PTSUNNY   68  59  73 VRB3      29.71F
CULPEPER*      CLOUDY    62  56  82 NE3       29.73F
ORANGE*        CLOUDY    63  57  82 CALM      29.72F
GORDONSVILLE*  CLOUDY    63  60  90 NE3       29.72S
WARRENTON*     DRIZZLE   60  56  85 N7        29.72F

$$

VAZ055>057-252000-
NORTH AND CENTRAL PIEDMONT

CITY           SKY/WX    TMP DP  RH WIND       PRES   REMARKS
FREDERICKSBRG* CLOUDY    63  59  87 NW3       29.70F
STAFFORD*      CLOUDY    64  62  94 N10       29.74F

$$

NCZ024-NYZ072-PAZ021-071-VAZ022-071-252000-
OTHER REGIONAL OBSERVATIONS

CITY           SKY/WX    TMP DP  RH WIND       PRES   REMARKS
NEW YORK CITY  LGT RAIN  59  58  96 VRB3      29.75F FOG
PHILADELPHIA   CLOUDY    66  59  78 SE5       29.69F
PITTSBURGH     CLOUDY    57  51  80 NW15      29.80F
ROANOKE        LGT RAIN  64  53  67 NW13G21   29.78F
RICHMOND       CLOUDY    63  62  97 NW8       29.71R
RALEIGH        CLOUDY    61  59  93 W6        29.75R

$$

ANZ530>537-252000-
MARINE OBSERVATIONS

STATION/POSITION TIME  TEMP    WIND        PRES
                       AIR SEA DIR/SP/G
                 (UTC) (F)     (DEG/KT/KT) (MB)
THOMAS PT LIGHT  1900   58 53   40/  9/ 10 1006.3F
BALT KEY BRIDGE  1836   61     170/  2/  2 1005.6F
COVE POINT       1836   55     350/  6/  7 1006.2F
LEWISETTA        1836   58 55   80/  4/  5 1005.2F
SOLOMONS ISLAND  1836   60 54  360/  5/  7 1005.0F
PINEY POINT      1848          350/  5/  6   N/A

$$




USA.gov is the U.S. government's official web portal to all federal, state and local government web resources and services.